Terug naar catalogus

STARLINK-36649

ActiefCommunicatieVLEO
NORAD 67837·PAYLOAD·🇺🇸 United States

Gelanceerd Feb 16, 2026 vanaf Vandenberg Space Force Base

Loading…

Volgende Passages (komende 24 uur)

TLE

VersSource: CelesTrak SupGP

Epoch: Sep 15, 2026, 03:33 UTC

1 67837C 26033S   26258.14840278 -.00013253  00000+0 -47997-3 0  2584
2 67837  42.9998 277.4081 0001397 267.1319 164.0362 15.27589516    14

Volg STARLINK-36649 in realtime met AllMySat

Download on the App Store